Year,Month,Day,Hour,Minute,Value (Times are PST for temperature in C)
2019,03,10,00,00,0.70
2019,03,10,00,01,0.70
2019,03,10,00,02,0.70
2019,03,10,00,03,0.70
2019,03,10,00,04,0.70
2019,03,10,00,05,0.70
2019,03,10,00,06,0.70
2019,03,10,00,07,0.70
2019,03,10,00,08,0.70
2019,03,10,00,09,0.70
2019,03,10,00,10,0.60
2019,03,10,00,11,0.60
2019,03,10,00,12,0.60
2019,03,10,00,13,0.60
2019,03,10,00,14,0.60
2019,03,10,00,15,0.60
2019,03,10,00,16,0.60
2019,03,10,00,17,0.50
2019,03,10,00,18,0.50
2019,03,10,00,19,0.50
2019,03,10,00,20,0.40
2019,03,10,00,21,0.40
2019,03,10,00,22,0.40
2019,03,10,00,23,0.40
2019,03,10,00,24,0.40
2019,03,10,00,25,0.40
2019,03,10,00,26,0.30
2019,03,10,00,27,0.30
2019,03,10,00,28,0.30
2019,03,10,00,29,0.30
2019,03,10,00,30,0.30
2019,03,10,00,31,0.30
2019,03,10,00,32,0.30
2019,03,10,00,33,0.30
2019,03,10,00,34,0.20
2019,03,10,00,35,0.20
2019,03,10,00,36,0.20
2019,03,10,00,37,0.10
2019,03,10,00,38,0.10
2019,03,10,00,39,0.10
2019,03,10,00,40,0.10
2019,03,10,00,41,0.00
2019,03,10,00,42,0.00
2019,03,10,00,43,0.00
2019,03,10,00,44,0.00
2019,03,10,00,45,0.00
2019,03,10,00,46,0.00
2019,03,10,00,47,-0.10
2019,03,10,00,48,-0.10
2019,03,10,00,49,-0.10
2019,03,10,00,50,-0.10
2019,03,10,00,51,-0.10
2019,03,10,00,52,-0.10
2019,03,10,00,53,-0.10
2019,03,10,00,54,-0.10
2019,03,10,00,55,-0.10
2019,03,10,00,56,-0.10
2019,03,10,00,57,-0.10
2019,03,10,00,58,-0.10
2019,03,10,00,59,-0.10
2019,03,10,01,00,-0.10
2019,03,10,01,01,-0.10
2019,03,10,01,02,-0.10
2019,03,10,01,03,-0.10
2019,03,10,01,04,-0.10
2019,03,10,01,05,-0.10
2019,03,10,01,06,0.00
2019,03,10,01,07,0.00
2019,03,10,01,08,0.00
2019,03,10,01,09,0.00
2019,03,10,01,10,0.10
2019,03,10,01,11,0.10
2019,03,10,01,12,0.10
2019,03,10,01,13,0.00
2019,03,10,01,14,0.00
2019,03,10,01,15,0.00
2019,03,10,01,16,0.00
2019,03,10,01,17,0.00
2019,03,10,01,18,0.00
2019,03,10,01,19,-0.10
2019,03,10,01,20,-0.10
2019,03,10,01,21,-0.10
2019,03,10,01,22,-0.10
2019,03,10,01,23,-0.10
2019,03,10,01,24,-0.10
2019,03,10,01,25,-0.20
2019,03,10,01,26,-0.20
2019,03,10,01,27,-0.20
2019,03,10,01,28,-0.20
2019,03,10,01,29,-0.20
2019,03,10,01,30,-0.20
2019,03,10,01,31,-0.30
2019,03,10,01,32,-0.30
2019,03,10,01,33,-0.20
2019,03,10,01,34,-0.20
2019,03,10,01,35,-0.20
2019,03,10,01,36,-0.20
2019,03,10,01,37,-0.20
2019,03,10,01,38,-0.20
2019,03,10,01,39,-0.20
2019,03,10,01,40,-0.20
2019,03,10,01,41,-0.20
2019,03,10,01,42,-0.20
2019,03,10,01,43,-0.20
2019,03,10,01,44,-0.20
2019,03,10,01,45,-0.20
2019,03,10,01,46,-0.20
2019,03,10,01,47,-0.20
2019,03,10,01,48,-0.20
2019,03,10,01,49,-0.20
2019,03,10,01,50,-0.20
2019,03,10,01,51,-0.20
2019,03,10,01,52,-0.20
2019,03,10,01,53,-0.20
2019,03,10,01,54,-0.20
2019,03,10,01,55,-0.10
2019,03,10,01,56,-0.10
2019,03,10,01,57,-0.10
2019,03,10,01,58,-0.10
2019,03,10,01,59,-0.10
2019,03,10,03,00,-0.10
2019,03,10,03,01,-0.10
2019,03,10,03,02,-0.10
2019,03,10,03,03,-0.10
2019,03,10,03,04,-0.10
2019,03,10,03,05,-0.20
2019,03,10,03,06,-0.20
2019,03,10,03,07,-0.20
2019,03,10,03,08,-0.20
2019,03,10,03,09,-0.20
2019,03,10,03,10,-0.20
2019,03,10,03,11,-0.30
2019,03,10,03,12,-0.30
2019,03,10,03,13,-0.30
2019,03,10,03,14,-0.30
2019,03,10,03,15,-0.30
2019,03,10,03,16,-0.30
2019,03,10,03,17,-0.30
2019,03,10,03,18,-0.30
2019,03,10,03,19,-0.40
2019,03,10,03,20,-0.40
2019,03,10,03,21,-0.40
2019,03,10,03,22,-0.40
2019,03,10,03,23,-0.40
2019,03,10,03,24,-0.40
2019,03,10,03,25,-0.40
2019,03,10,03,26,-0.40
2019,03,10,03,27,-0.40
2019,03,10,03,28,-0.40
2019,03,10,03,29,-0.40
2019,03,10,03,30,-0.40
2019,03,10,03,31,-0.40
2019,03,10,03,32,-0.40
2019,03,10,03,33,-0.40
2019,03,10,03,34,-0.40
2019,03,10,03,35,-0.50
2019,03,10,03,36,-0.50
2019,03,10,03,37,-0.50
2019,03,10,03,38,-0.50
2019,03,10,03,39,-0.50
2019,03,10,03,40,-0.60
2019,03,10,03,41,-0.60
2019,03,10,03,42,-0.60
2019,03,10,03,43,-0.60
2019,03,10,03,44,-0.60
2019,03,10,03,45,-0.60
2019,03,10,03,46,-0.60
2019,03,10,03,47,-0.60
2019,03,10,03,48,-0.60
2019,03,10,03,49,-0.60
2019,03,10,03,50,-0.50
2019,03,10,03,51,-0.50
2019,03,10,03,52,-0.50
2019,03,10,03,53,-0.50
2019,03,10,03,54,-0.50
2019,03,10,03,55,-0.50
2019,03,10,03,56,-0.50
2019,03,10,03,57,-0.50
2019,03,10,03,58,-0.50
2019,03,10,03,59,-0.60
2019,03,10,04,00,-0.60
2019,03,10,04,01,-0.60
2019,03,10,04,02,-0.60
2019,03,10,04,03,-0.60
2019,03,10,04,04,-0.60
2019,03,10,04,05,-0.60
2019,03,10,04,06,-0.60
2019,03,10,04,07,-0.60
2019,03,10,04,08,-0.60
2019,03,10,04,09,-0.70
2019,03,10,04,10,-0.70
2019,03,10,04,11,-0.70
2019,03,10,04,12,-0.70
2019,03,10,04,13,-0.70
2019,03,10,04,14,-0.70
2019,03,10,04,15,-0.70
2019,03,10,04,16,-0.70
2019,03,10,04,17,-0.70
2019,03,10,04,18,-0.70
2019,03,10,04,19,-0.70
2019,03,10,04,20,-0.70
2019,03,10,04,21,-0.60
2019,03,10,04,22,-0.60
2019,03,10,04,23,-0.60
2019,03,10,04,24,-0.60
2019,03,10,04,25,-0.60
2019,03,10,04,26,-0.60
2019,03,10,04,27,-0.60
2019,03,10,04,28,-0.60
2019,03,10,04,29,-0.60
2019,03,10,04,30,-0.60
2019,03,10,04,31,-0.60
2019,03,10,04,32,-0.70
2019,03,10,04,33,-0.70
2019,03,10,04,34,-0.70
2019,03,10,04,35,-0.70
2019,03,10,04,36,-0.70
2019,03,10,04,37,-0.70
2019,03,10,04,38,-0.70
2019,03,10,04,39,-0.70
2019,03,10,04,40,-0.70
2019,03,10,04,41,-0.70
2019,03,10,04,42,-0.80
2019,03,10,04,43,-0.80
2019,03,10,04,44,-0.80
2019,03,10,04,45,-0.80
2019,03,10,04,46,-0.80
2019,03,10,04,47,-0.80
2019,03,10,04,48,-0.80
2019,03,10,04,49,-0.80
2019,03,10,04,50,-0.80
2019,03,10,04,51,-0.80
2019,03,10,04,52,-0.70
2019,03,10,04,53,-0.70
2019,03,10,04,54,-0.80
2019,03,10,04,55,-0.80
2019,03,10,04,56,-0.80
2019,03,10,04,57,-0.80
2019,03,10,04,58,-0.80
2019,03,10,04,59,-0.80
2019,03,10,05,00,-0.80
2019,03,10,05,01,-0.90
2019,03,10,05,02,-0.90
2019,03,10,05,03,-0.90
2019,03,10,05,04,-0.90
2019,03,10,05,05,-0.90
2019,03,10,05,06,-0.90
2019,03,10,05,07,-0.90
2019,03,10,05,08,-0.90
2019,03,10,05,09,-0.90
2019,03,10,05,10,-0.90
2019,03,10,05,11,-0.90
2019,03,10,05,12,-0.90
2019,03,10,05,13,-0.90
2019,03,10,08,53,-0.30
2019,03,10,08,54,-0.30
2019,03,10,08,55,-0.20
2019,03,10,08,56,-0.20
2019,03,10,08,57,-0.20
2019,03,10,08,58,-0.10
2019,03,10,08,59,-0.10
2019,03,10,09,00,0.00
2019,03,10,09,01,0.00
2019,03,10,09,02,0.10
2019,03,10,09,03,0.10
2019,03,10,09,04,0.10
2019,03,10,09,05,0.20
2019,03,10,09,06,0.20
2019,03,10,09,07,0.30
2019,03,10,09,08,0.30
2019,03,10,09,09,0.40
2019,03,10,09,10,0.40
2019,03,10,09,11,0.50
2019,03,10,09,12,0.50
2019,03,10,09,13,0.60
2019,03,10,09,14,0.70
2019,03,10,09,15,0.70
2019,03,10,09,16,0.80
2019,03,10,09,17,0.80
2019,03,10,09,18,0.90
2019,03,10,09,19,0.90
2019,03,10,09,20,1.00
2019,03,10,09,21,1.00
2019,03,10,09,22,1.10
2019,03,10,09,23,1.20
2019,03,10,09,24,1.20
2019,03,10,09,25,1.30
2019,03,10,09,26,1.30
2019,03,10,09,27,1.40
2019,03,10,09,28,1.40
2019,03,10,09,29,1.50
2019,03,10,09,30,1.50
2019,03,10,09,31,1.60
2019,03,10,09,32,1.60
2019,03,10,09,33,1.70
2019,03,10,09,34,1.70
2019,03,10,09,35,1.80
2019,03,10,09,36,1.80
2019,03,10,09,37,1.90
2019,03,10,09,38,1.90
2019,03,10,09,39,1.90
2019,03,10,09,40,2.00
2019,03,10,09,41,2.00
2019,03,10,09,42,2.10
2019,03,10,09,43,2.10
2019,03,10,09,44,2.20
2019,03,10,09,45,2.30
2019,03,10,09,46,2.30
2019,03,10,09,47,2.30
2019,03,10,09,48,2.40
2019,03,10,09,49,2.40
2019,03,10,09,50,2.50
2019,03,10,09,51,2.50
2019,03,10,09,52,2.60
2019,03,10,09,53,2.60
2019,03,10,09,54,2.70
2019,03,10,09,55,2.70
2019,03,10,09,56,2.80
2019,03,10,09,57,2.80
2019,03,10,09,58,2.90
2019,03,10,09,59,2.90
2019,03,10,10,00,3.00
2019,03,10,10,01,3.00
2019,03,10,10,02,3.10
2019,03,10,10,03,3.10
2019,03,10,10,04,3.20
2019,03,10,10,05,3.20
2019,03,10,10,06,3.30
2019,03,10,10,07,3.30
2019,03,10,10,08,3.40
2019,03,10,10,09,3.50
2019,03,10,10,10,3.50
2019,03,10,10,11,3.60
2019,03,10,10,12,3.70
2019,03,10,10,13,3.90
2019,03,10,10,14,3.90
2019,03,10,10,15,4.00
2019,03,10,10,16,4.10
2019,03,10,10,17,4.20
2019,03,10,10,18,4.20
2019,03,10,10,19,4.30
2019,03,10,10,20,4.40
2019,03,10,10,21,4.50
2019,03,10,10,22,4.60
2019,03,10,10,23,4.70
2019,03,10,10,24,4.70
2019,03,10,10,25,4.80
2019,03,10,10,26,4.90
2019,03,10,10,27,4.90
2019,03,10,10,28,5.00
2019,03,10,10,29,5.00
2019,03,10,10,30,5.10
2019,03,10,10,31,5.10
2019,03,10,10,32,5.20
2019,03,10,10,33,5.20
2019,03,10,10,34,5.20
2019,03,10,10,35,5.30
2019,03,10,10,36,5.30
2019,03,10,10,37,5.30
2019,03,10,10,38,5.30
2019,03,10,10,39,5.30
2019,03,10,10,40,5.40
2019,03,10,10,41,5.40
2019,03,10,10,42,5.40
2019,03,10,10,43,5.50
2019,03,10,10,44,5.50
2019,03,10,10,45,5.50
2019,03,10,10,46,5.60
2019,03,10,10,47,5.60
2019,03,10,10,48,5.60
2019,03,10,10,49,5.60
2019,03,10,10,50,5.70
2019,03,10,10,51,5.70
2019,03,10,10,52,5.70
2019,03,10,10,53,5.80
2019,03,10,10,54,5.80
2019,03,10,10,55,5.90
2019,03,10,10,56,6.00
2019,03,10,10,57,6.10
2019,03,10,10,58,6.10
2019,03,10,10,59,6.10
2019,03,10,11,00,6.10
2019,03,10,11,01,6.10
2019,03,10,11,02,6.00
2019,03,10,11,03,6.00
2019,03,10,11,04,6.00
2019,03,10,11,05,6.00
2019,03,10,11,06,5.90
2019,03,10,11,07,5.90
2019,03,10,11,08,5.90
2019,03,10,11,09,5.90
2019,03,10,11,10,5.90
2019,03,10,11,11,5.90
2019,03,10,11,12,6.00
2019,03,10,11,13,6.00
2019,03,10,11,14,6.00
2019,03,10,11,15,5.90
2019,03,10,11,16,5.90
2019,03,10,11,17,5.90
2019,03,10,11,18,5.90
2019,03,10,11,19,5.90
2019,03,10,11,20,5.90
2019,03,10,11,21,5.90
2019,03,10,11,22,5.90
2019,03,10,11,23,5.90
2019,03,10,11,24,5.90
2019,03,10,11,25,5.90
2019,03,10,11,26,5.90
2019,03,10,11,27,5.90
2019,03,10,11,28,6.00
2019,03,10,11,29,6.00
2019,03,10,11,30,6.00
2019,03,10,11,31,5.90
2019,03,10,11,32,6.00
2019,03,10,11,33,6.00
2019,03,10,11,34,6.00
2019,03,10,11,35,6.00
2019,03,10,11,36,6.00
2019,03,10,11,37,6.10
2019,03,10,11,38,6.10
2019,03,10,11,39,6.10
2019,03,10,11,40,6.10
2019,03,10,11,41,6.10
2019,03,10,11,42,6.10
2019,03,10,11,43,6.10
2019,03,10,11,44,6.10
2019,03,10,11,45,6.10
2019,03,10,11,46,6.20
2019,03,10,11,47,6.20
2019,03,10,11,48,6.20
2019,03,10,11,49,6.30
2019,03,10,11,50,6.30
2019,03,10,11,51,6.30
2019,03,10,11,52,6.30
2019,03,10,11,53,6.30
2019,03,10,11,54,6.30
2019,03,10,11,55,6.30
2019,03,10,11,56,6.30
2019,03,10,11,57,6.40
2019,03,10,11,58,6.40
2019,03,10,11,59,6.30
2019,03,10,12,00,6.30
2019,03,10,12,01,6.30
2019,03,10,12,02,6.30
2019,03,10,12,03,6.30
2019,03,10,12,04,6.30
2019,03,10,12,05,6.30
2019,03,10,12,06,6.40
2019,03,10,12,07,6.40
2019,03,10,12,08,6.40
2019,03,10,12,09,6.50
2019,03,10,12,10,6.60
2019,03,10,12,11,6.60
2019,03,10,12,12,6.70
2019,03,10,12,13,6.70
2019,03,10,12,14,6.80
2019,03,10,12,15,6.80
2019,03,10,12,16,6.90
2019,03,10,12,17,6.90
2019,03,10,12,18,6.90
2019,03,10,12,19,6.90
2019,03,10,12,20,6.90
2019,03,10,12,21,6.90
2019,03,10,12,22,6.90
2019,03,10,12,23,6.90
2019,03,10,12,24,6.90
2019,03,10,12,25,6.90
2019,03,10,12,26,6.90
2019,03,10,12,27,6.90
2019,03,10,12,28,6.90
2019,03,10,12,29,6.90
2019,03,10,12,30,6.90
2019,03,10,12,31,6.90
2019,03,10,12,32,6.90
2019,03,10,12,33,6.90
2019,03,10,12,34,6.90
2019,03,10,12,35,6.90
2019,03,10,12,36,6.80
2019,03,10,12,37,6.80
2019,03,10,12,38,6.90
2019,03,10,12,39,6.90
2019,03,10,12,40,6.90
2019,03,10,12,41,6.90
2019,03,10,12,42,6.90
2019,03,10,12,43,7.00
2019,03,10,12,44,7.00
2019,03,10,12,45,7.00
2019,03,10,12,46,7.00
2019,03,10,12,47,7.00
2019,03,10,12,48,7.00
2019,03,10,12,49,7.10
2019,03,10,12,50,7.10
2019,03,10,12,51,7.10
2019,03,10,12,52,7.20
2019,03,10,12,53,7.20
2019,03,10,12,54,7.30
2019,03,10,12,55,7.30
2019,03,10,12,56,7.40
2019,03,10,12,57,7.50
2019,03,10,12,58,7.50
2019,03,10,12,59,7.60
2019,03,10,13,00,7.60
2019,03,10,13,01,7.60
2019,03,10,13,02,7.50
2019,03,10,13,03,7.50
2019,03,10,13,04,7.40
2019,03,10,13,05,7.40
2019,03,10,13,06,7.40
2019,03,10,13,07,7.40
2019,03,10,13,08,7.30
2019,03,10,13,09,7.30
2019,03,10,13,10,7.30
2019,03,10,13,11,7.30
2019,03,10,13,12,7.30
2019,03,10,13,13,7.30
2019,03,10,13,14,7.30
2019,03,10,13,15,7.40
2019,03,10,13,16,7.40
2019,03,10,13,17,7.50
2019,03,10,13,18,7.50
2019,03,10,13,19,7.60
2019,03,10,13,20,7.60
2019,03,10,13,21,7.70
2019,03,10,13,22,7.70
2019,03,10,13,23,7.80
2019,03,10,13,24,7.80
2019,03,10,13,25,7.80
2019,03,10,13,26,7.90
2019,03,10,13,27,7.90
2019,03,10,13,28,7.90
2019,03,10,13,29,8.00
2019,03,10,13,30,8.00
2019,03,10,13,31,8.00
2019,03,10,13,32,7.90
2019,03,10,13,33,7.90
2019,03,10,13,34,7.90
2019,03,10,13,35,7.80
2019,03,10,13,36,7.80
2019,03,10,13,37,7.80
2019,03,10,13,38,7.80
2019,03,10,13,39,7.80
2019,03,10,13,40,7.80
2019,03,10,13,41,7.80
2019,03,10,13,42,7.80
2019,03,10,13,43,7.90
2019,03,10,13,44,7.90
2019,03,10,13,45,7.90
2019,03,10,13,46,7.90
2019,03,10,13,47,8.00
2019,03,10,13,48,7.90
2019,03,10,13,49,7.90
2019,03,10,13,50,7.90
2019,03,10,13,51,7.90
2019,03,10,13,52,7.90
2019,03,10,13,53,7.90
2019,03,10,13,54,7.90
2019,03,10,13,55,8.00
2019,03,10,13,56,8.00
2019,03,10,13,57,8.00
2019,03,10,13,58,8.10
2019,03,10,13,59,8.20
2019,03,10,14,00,8.20
2019,03,10,14,01,8.20
2019,03,10,14,02,8.20
2019,03,10,14,03,8.20
2019,03,10,14,04,8.20
2019,03,10,14,05,8.20
2019,03,10,14,06,8.20
2019,03,10,14,07,8.20
2019,03,10,14,08,8.30
2019,03,10,14,09,8.30
2019,03,10,14,10,8.40
2019,03,10,14,11,8.40
2019,03,10,14,12,8.40
2019,03,10,14,13,8.40
2019,03,10,14,14,8.40
2019,03,10,14,15,8.40
2019,03,10,14,16,8.40
2019,03,10,14,17,8.40
2019,03,10,14,18,8.40
2019,03,10,14,19,8.40
2019,03,10,14,20,8.50
2019,03,10,14,21,8.50
2019,03,10,14,22,8.50
2019,03,10,14,23,8.50
2019,03,10,14,24,8.50
2019,03,10,14,25,8.50
2019,03,10,14,26,8.60
2019,03,10,14,27,8.60
2019,03,10,14,28,8.70
2019,03,10,14,29,8.70
2019,03,10,14,30,8.80
2019,03,10,14,31,8.80
2019,03,10,14,32,8.80
2019,03,10,14,33,8.90
2019,03,10,14,34,8.90
2019,03,10,14,35,9.00
2019,03,10,14,36,9.00
2019,03,10,14,37,9.10
2019,03,10,14,38,9.00
2019,03,10,14,39,9.00
2019,03,10,14,40,9.00
2019,03,10,14,41,9.00
2019,03,10,14,42,9.00
2019,03,10,14,43,9.00
2019,03,10,14,44,9.00
2019,03,10,14,45,9.00
2019,03,10,14,46,9.00
2019,03,10,14,47,9.00
2019,03,10,14,48,9.10
2019,03,10,14,49,9.10
2019,03,10,14,50,9.20
2019,03,10,14,51,9.20
2019,03,10,14,52,9.20
2019,03,10,14,53,9.20
2019,03,10,14,54,9.20
2019,03,10,14,55,9.20
2019,03,10,14,56,9.20
2019,03,10,14,57,9.20
2019,03,10,14,58,9.20
2019,03,10,14,59,9.10
2019,03,10,15,00,9.10
2019,03,10,15,01,9.10
2019,03,10,15,02,9.10
2019,03,10,15,03,9.00
2019,03,10,15,04,9.00
2019,03,10,15,05,9.00
2019,03,10,15,06,8.90
2019,03,10,15,07,8.90
2019,03,10,15,08,8.90
2019,03,10,15,09,8.90
2019,03,10,15,10,8.90
2019,03,10,15,11,8.90
2019,03,10,15,12,8.90
2019,03,10,15,13,8.90
2019,03,10,15,14,8.90
2019,03,10,15,15,8.80
2019,03,10,15,16,8.80
2019,03,10,15,17,8.70
2019,03,10,15,18,8.70
2019,03,10,15,19,8.70
2019,03,10,15,20,8.70
2019,03,10,15,21,8.70
2019,03,10,15,22,8.70
2019,03,10,15,23,8.70
2019,03,10,15,24,8.70
2019,03,10,15,25,8.70
2019,03,10,15,26,8.70
2019,03,10,15,27,8.60
2019,03,10,15,28,8.60
2019,03,10,15,29,8.60
2019,03,10,15,30,8.50
2019,03,10,15,31,8.40
2019,03,10,15,32,8.40
2019,03,10,15,33,8.40
2019,03,10,15,34,8.30
2019,03,10,15,35,8.30
2019,03,10,15,36,8.30
2019,03,10,15,37,8.30
2019,03,10,15,38,8.30
2019,03,10,15,39,8.30
2019,03,10,15,40,8.30
2019,03,10,15,41,8.40
2019,03,10,15,42,8.40
2019,03,10,15,43,8.40
2019,03,10,15,44,8.40
2019,03,10,15,45,8.50
2019,03,10,15,46,8.50
2019,03,10,15,47,8.40
2019,03,10,15,48,8.40
2019,03,10,15,49,8.40
2019,03,10,15,50,8.40
2019,03,10,15,51,8.40
2019,03,10,15,52,8.40
2019,03,10,15,53,8.40
2019,03,10,15,54,8.40
2019,03,10,15,55,8.40
2019,03,10,15,56,8.40
2019,03,10,15,57,8.40
2019,03,10,15,58,8.40
2019,03,10,15,59,8.40
2019,03,10,16,00,8.40
2019,03,10,16,01,8.40
2019,03,10,16,02,8.50
2019,03,10,16,03,8.50
2019,03,10,16,04,8.50
2019,03,10,16,05,8.50
2019,03,10,16,06,8.60
2019,03,10,16,07,8.60
2019,03,10,16,08,8.70
2019,03,10,16,09,8.70
2019,03,10,16,10,8.70
2019,03,10,16,11,8.70
2019,03,10,16,12,8.70
2019,03,10,16,13,8.80
2019,03,10,16,14,8.80
2019,03,10,16,15,8.80
2019,03,10,16,16,8.70
2019,03,10,16,17,8.70
2019,03,10,16,18,8.60
2019,03,10,16,19,8.60
2019,03,10,16,20,8.50
2019,03,10,16,21,8.40
2019,03,10,16,22,8.30
2019,03,10,16,23,8.20
2019,03,10,16,24,8.20
2019,03,10,16,25,8.20
2019,03,10,16,26,8.20
2019,03,10,16,27,8.20
2019,03,10,16,28,8.20
2019,03,10,16,29,8.20
2019,03,10,16,30,8.20
2019,03,10,16,31,8.20
2019,03,10,16,32,8.10
2019,03,10,16,33,8.10
2019,03,10,16,34,8.10
2019,03,10,16,35,8.00
2019,03,10,16,36,8.00
2019,03,10,16,37,7.90
2019,03,10,16,38,7.90
2019,03,10,16,39,7.80
2019,03,10,16,40,7.80
2019,03,10,16,41,7.80
2019,03,10,16,42,7.80
2019,03,10,16,43,7.70
2019,03,10,16,44,7.70
2019,03,10,16,45,7.70
2019,03,10,16,46,7.70
2019,03,10,16,47,7.70
2019,03,10,16,48,7.70
2019,03,10,16,49,7.70
2019,03,10,16,50,7.70
2019,03,10,16,51,7.70
2019,03,10,16,52,7.70
2019,03,10,16,53,7.70
2019,03,10,16,54,7.70
2019,03,10,16,55,7.70
2019,03,10,16,56,7.70
2019,03,10,16,57,7.70
2019,03,10,16,58,7.70
2019,03,10,16,59,7.70
2019,03,10,17,00,7.70
2019,03,10,17,01,7.70
2019,03,10,17,02,7.70
2019,03,10,17,03,7.70
2019,03,10,17,04,7.70
2019,03,10,17,05,7.70
2019,03,10,17,06,7.70
2019,03,10,17,07,7.70
2019,03,10,17,08,7.70
2019,03,10,17,09,7.80
2019,03,10,17,10,7.80
2019,03,10,17,11,7.80
2019,03,10,17,12,7.70
2019,03,10,17,13,7.70
2019,03,10,17,14,7.70
2019,03,10,17,15,7.70
2019,03,10,17,16,7.70
2019,03,10,17,17,7.70
2019,03,10,17,18,7.70
2019,03,10,17,19,7.70
2019,03,10,17,20,7.60
2019,03,10,17,21,7.60
2019,03,10,17,22,7.60
2019,03,10,17,23,7.60
2019,03,10,17,24,7.60
2019,03,10,17,25,7.60
2019,03,10,17,26,7.60
2019,03,10,17,27,7.70
2019,03,10,17,28,7.60
2019,03,10,17,29,7.60
2019,03,10,17,30,7.60
2019,03,10,17,31,7.60
2019,03,10,17,32,7.60
2019,03,10,17,33,7.60
2019,03,10,17,34,7.60
2019,03,10,17,35,7.60
2019,03,10,17,36,7.60
2019,03,10,17,37,7.60
2019,03,10,17,38,7.60
2019,03,10,17,39,7.60
2019,03,10,17,40,7.70
2019,03,10,17,41,7.70
2019,03,10,17,42,7.80
2019,03,10,17,43,7.80
2019,03,10,17,44,7.80
2019,03,10,17,45,7.80
2019,03,10,17,46,7.90
2019,03,10,17,47,7.90
2019,03,10,17,48,7.90
2019,03,10,17,49,8.00
2019,03,10,17,50,8.00
2019,03,10,17,51,8.00
2019,03,10,17,52,8.00
2019,03,10,17,53,8.10
2019,03,10,17,54,8.10
2019,03,10,17,55,8.10
2019,03,10,17,56,8.10
2019,03,10,17,57,8.10
2019,03,10,17,58,8.10
2019,03,10,17,59,8.10
2019,03,10,18,00,8.10
2019,03,10,18,01,8.10
2019,03,10,18,02,8.20
2019,03,10,18,03,8.20
2019,03,10,18,04,8.10
2019,03,10,18,05,8.10
2019,03,10,18,06,8.10
2019,03,10,18,07,8.10
2019,03,10,18,08,8.00
2019,03,10,18,09,8.00
2019,03,10,18,10,8.00
2019,03,10,18,11,7.90
2019,03,10,18,12,7.90
2019,03,10,18,13,7.90
2019,03,10,18,14,7.90
2019,03,10,18,15,7.90
2019,03,10,18,16,7.90
2019,03,10,18,17,7.80
2019,03,10,18,18,7.80
2019,03,10,18,19,7.80
2019,03,10,18,20,7.80
2019,03,10,18,21,7.80
2019,03,10,18,22,7.80
2019,03,10,18,23,7.80
2019,03,10,18,24,7.70
2019,03,10,18,25,7.70
2019,03,10,18,26,7.70
2019,03,10,18,27,7.70
2019,03,10,18,28,7.60
2019,03,10,18,29,7.60
2019,03,10,18,30,7.60
2019,03,10,18,31,7.50
2019,03,10,18,32,7.50
2019,03,10,18,33,7.40
2019,03,10,18,34,7.40
2019,03,10,18,35,7.40
2019,03,10,18,36,7.40
2019,03,10,18,37,7.30
2019,03,10,18,38,7.30
2019,03,10,18,39,7.30
2019,03,10,18,40,7.30
2019,03,10,18,41,7.30
2019,03,10,18,42,7.30
2019,03,10,18,43,7.20
2019,03,10,18,44,7.20
2019,03,10,18,45,7.20
2019,03,10,18,46,7.20
2019,03,10,18,47,7.20
2019,03,10,18,48,7.20
2019,03,10,18,49,7.20
2019,03,10,18,50,7.20
2019,03,10,18,51,7.20
2019,03,10,18,52,7.10
2019,03,10,18,53,7.10
2019,03,10,18,54,7.10
2019,03,10,18,55,7.10
2019,03,10,18,56,7.10
2019,03,10,18,57,7.10
2019,03,10,18,58,7.10
2019,03,10,18,59,7.10
2019,03,10,19,00,7.10
2019,03,10,19,01,7.10
2019,03,10,19,02,7.00
2019,03,10,19,03,7.00
2019,03,10,19,04,7.00
2019,03,10,19,05,7.00
2019,03,10,19,06,7.00
2019,03,10,19,07,7.00
2019,03,10,19,08,6.90
2019,03,10,19,09,6.90
2019,03,10,19,10,6.90
2019,03,10,19,11,6.90
2019,03,10,19,12,6.90
2019,03,10,19,13,6.90
2019,03,10,19,14,6.80
2019,03,10,19,15,6.80
2019,03,10,19,16,6.80
2019,03,10,19,17,6.80
2019,03,10,19,18,6.80
2019,03,10,19,19,6.80
2019,03,10,19,20,6.80
2019,03,10,19,21,6.80
2019,03,10,19,22,6.80
2019,03,10,19,23,6.80
2019,03,10,19,24,6.80
2019,03,10,19,25,6.80
2019,03,10,19,26,6.80
2019,03,10,19,27,6.80
2019,03,10,19,28,6.80
2019,03,10,19,29,6.70
2019,03,10,19,30,6.70
2019,03,10,19,31,6.70
2019,03,10,19,32,6.70
2019,03,10,19,33,6.70
2019,03,10,19,34,6.70
2019,03,10,19,35,6.70
2019,03,10,19,36,6.70
2019,03,10,19,37,6.70
2019,03,10,19,38,6.70
2019,03,10,19,39,6.70
2019,03,10,19,40,6.70
2019,03,10,19,41,6.70
2019,03,10,19,42,6.70
2019,03,10,19,43,6.70
2019,03,10,19,44,6.70
2019,03,10,19,45,6.70
2019,03,10,19,46,6.70
2019,03,10,19,47,6.70
2019,03,10,19,48,6.70
2019,03,10,19,49,6.70
2019,03,10,19,50,6.70
2019,03,10,19,51,6.70
2019,03,10,19,52,6.70
2019,03,10,19,53,6.70
2019,03,10,19,54,6.70
2019,03,10,19,55,6.70
2019,03,10,19,56,6.70
2019,03,10,19,57,6.70
2019,03,10,19,58,6.70
2019,03,10,19,59,6.70
2019,03,10,20,00,6.70
2019,03,10,20,01,6.70
2019,03,10,20,02,6.70
2019,03,10,20,03,6.70
2019,03,10,20,04,6.70
2019,03,10,20,05,6.70
2019,03,10,20,06,6.70
2019,03,10,20,07,6.70
2019,03,10,20,08,6.70
2019,03,10,20,09,6.70
2019,03,10,20,10,6.70
2019,03,10,20,11,6.60
2019,03,10,20,12,6.60
2019,03,10,20,13,6.60
2019,03,10,20,14,6.60
2019,03,10,20,15,6.60
2019,03,10,20,16,6.60
2019,03,10,20,17,6.60
2019,03,10,20,18,6.50
2019,03,10,20,19,6.60
2019,03,10,20,20,6.50
2019,03,10,20,21,6.50
2019,03,10,20,22,6.40
2019,03,10,20,23,6.40
2019,03,10,20,24,6.30
2019,03,10,20,25,6.20
2019,03,10,20,26,6.20
2019,03,10,20,27,6.10
2019,03,10,20,28,6.10
2019,03,10,20,29,6.00
2019,03,10,20,30,6.00
2019,03,10,20,31,5.90
2019,03,10,20,32,5.90
2019,03,10,20,33,5.80
2019,03,10,20,34,5.80
2019,03,10,20,35,5.80
2019,03,10,20,36,5.70
2019,03,10,20,37,5.70
2019,03,10,20,38,5.70
2019,03,10,20,39,5.60
2019,03,10,20,40,5.60
2019,03,10,20,41,5.60
2019,03,10,20,42,5.60
2019,03,10,20,43,5.60
2019,03,10,20,44,5.60
2019,03,10,20,45,5.50
2019,03,10,20,46,5.60
2019,03,10,20,47,5.50
2019,03,10,20,48,5.50
2019,03,10,20,49,5.50
2019,03,10,20,50,5.50
2019,03,10,20,51,5.50
2019,03,10,20,52,5.50
2019,03,10,20,53,5.50
2019,03,10,20,54,5.50
2019,03,10,20,55,5.50
2019,03,10,20,56,5.40
2019,03,10,20,57,5.40
2019,03,10,20,58,5.40
2019,03,10,20,59,5.40
2019,03,10,21,00,5.30
2019,03,10,21,01,5.30
2019,03,10,21,02,5.30
2019,03,10,21,03,5.30
2019,03,10,21,04,5.20
2019,03,10,21,05,5.20
2019,03,10,21,06,5.20
2019,03,10,21,07,5.20
2019,03,10,21,08,5.20
2019,03,10,21,09,5.10
2019,03,10,21,10,5.10
2019,03,10,21,11,5.10
2019,03,10,21,12,5.10
2019,03,10,21,13,5.10
2019,03,10,21,14,5.10
2019,03,10,21,15,5.00
2019,03,10,21,16,5.00
2019,03,10,21,17,5.00
2019,03,10,21,18,5.00
2019,03,10,21,19,5.00
2019,03,10,21,20,5.00
2019,03,10,21,21,4.90
2019,03,10,21,22,4.90
2019,03,10,21,23,4.90
2019,03,10,21,24,4.90
2019,03,10,21,25,4.90
2019,03,10,21,26,4.90
2019,03,10,21,27,4.80
2019,03,10,21,28,4.80
2019,03,10,21,29,4.80
2019,03,10,21,30,4.80
2019,03,10,21,31,4.80
2019,03,10,21,32,4.70
2019,03,10,21,33,4.70
2019,03,10,21,34,4.70
2019,03,10,21,35,4.70
2019,03,10,21,36,4.60
2019,03,10,21,37,4.60
2019,03,10,21,38,4.60
2019,03,10,21,39,4.60
2019,03,10,21,40,4.60
2019,03,10,21,41,4.50
2019,03,10,21,42,4.50
2019,03,10,21,43,4.50
2019,03,10,21,44,4.40
2019,03,10,21,45,4.40
2019,03,10,21,46,4.40
2019,03,10,21,47,4.40
2019,03,10,21,48,4.40
2019,03,10,21,49,4.40
2019,03,10,21,50,4.40
2019,03,10,21,51,4.40
2019,03,10,21,52,4.40
2019,03,10,21,53,4.40
2019,03,10,21,54,4.30
2019,03,10,21,55,4.30
2019,03,10,21,56,4.30
2019,03,10,21,57,4.30
2019,03,10,21,58,4.30
2019,03,10,21,59,4.30
2019,03,10,22,00,4.30
2019,03,10,22,01,4.30
2019,03,10,22,02,4.30
2019,03,10,22,03,4.30
2019,03,10,22,04,4.30
2019,03,10,22,05,4.30
2019,03,10,22,06,4.30
2019,03,10,22,07,4.40
2019,03,10,22,08,4.30
2019,03,10,22,09,4.40
2019,03,10,22,10,4.40
2019,03,10,22,11,4.30
2019,03,10,22,12,4.30
2019,03,10,22,13,4.30
2019,03,10,22,14,4.30
2019,03,10,22,15,4.30
2019,03,10,22,16,4.30
2019,03,10,22,17,4.40
2019,03,10,22,18,4.30
2019,03,10,22,19,4.30
2019,03,10,22,20,4.30
2019,03,10,22,21,4.30
2019,03,10,22,22,4.30
2019,03,10,22,23,4.30
2019,03,10,22,24,4.30
2019,03,10,22,25,4.30
2019,03,10,22,26,4.30
2019,03,10,22,27,4.30
2019,03,10,22,28,4.30
2019,03,10,22,29,4.30
2019,03,10,22,30,4.30
2019,03,10,22,31,4.30
2019,03,10,22,32,4.20
2019,03,10,22,33,4.20
2019,03,10,22,34,4.20
2019,03,10,22,35,4.20
2019,03,10,22,36,4.20